Campo, CA

5:45 PM PST on December 09, 2019 (GMT -0800)
Campo

Weather History for KCZZ - August, 2019

Change the Weather History Date:

Friday, August 30, 2019

  Actual Average Record
Temperature  
Mean Temperature 78 °F 73 °F  
Max Temperature 100 °F 94 °F 106 °F (2017)
Min Temperature 56 °F 52 °F 38 °F (1962)
Degree Days  
Heating Degree Days 0 0  
Month to date heating degree days 0 0  
Since 1 June heating degree days 42 63  
Since 1 July heating degree days 6 7  
Cooling Degree Days 13 8  
Month to date cooling degree days 304 266  
Year to date cooling degree days 632 638  
Since 1 June cooling degree days 630 608  
Growing Degree Days 28 (Base 50)    
Moisture  
Dew Point 54 °F    
Average Humidity 52    
Maximum Humidity 86    
Minimum Humidity 17    
Precipitation  
Precipitation 0.00 in 0.02 in 0.13 in (2012)
Month to date precipitation 0.00 0.68  
Year to date precipitation 12.82 11.15  
Sea Level Pressure  
Sea Level Pressure 29.88 in    
Wind  
Wind Speed 8 mph (North)    
Max Wind Speed 21 mph    
Max Gust Speed 24 mph    
T = Trace of Precipitation, MM = Missing Value Source: NWS Daily Summary

Daily Weather History Graph

Daily Weather History Graph

Search for Another Location

Airport or City:

Astronomy

Aug. 30, 2019 Rise Set
Actual Time 6:19 AM PDT 7:13 PM PDT
Civil Twilight 5:54 AM PDT 7:38 PM PDT
Nautical Twilight 5:24 AM PDT 8:08 PM PDT
Astronomical Twilight 4:53 AM PDT 8:38 PM PDT
Moon 6:28 AM PDT (8/30) 7:52 PM PDT (8/30)
Length of Visible Light 13h 44m
Length of Day
12h 53m
New Moon, 0% of the Moon is Illuminated
Aug 30
New Moon
Sep 5
First Quarter
Sep 13
Full
Sep 21
Last Quarter
Sep 28
New

Hourly Weather History & Observations

Time (PDT) Temp. Heat Index Dew Point Humidity Pressure Visibility Wind Dir Wind Speed Gust Speed Precip Events Conditions
12:52 AM 66.0 °F - 57.0 °F 73% 29.91 in - NE 4.6 mph - N/A   Unknown
1:52 AM 63.0 °F - 55.9 °F 78% 29.90 in - ENE 5.8 mph - N/A   Unknown
2:52 AM 63.0 °F - 55.9 °F 78% 29.89 in - ENE 5.8 mph - N/A   Unknown
3:52 AM 61.0 °F - 54.0 °F 78% 29.89 in - NE 5.8 mph - N/A   Unknown
4:52 AM 60.1 °F - 53.1 °F 78% 29.91 in - NE 5.8 mph - N/A   Unknown
5:52 AM 57.9 °F - 53.1 °F 84% 29.91 in - ENE 5.8 mph - N/A   Unknown
6:52 AM 61.0 °F - 52.0 °F 72% 29.93 in - ENE 8.1 mph - N/A   Unknown
7:52 AM 71.1 °F - 54.0 °F 55% 29.93 in - East 4.6 mph - N/A   Unknown
8:52 AM 80.1 °F 80.2 °F 55.9 °F 43% 29.92 in - Calm Calm - N/A   Unknown
9:52 AM 86.0 °F 84.5 °F 55.0 °F 35% 29.91 in - SW 9.2 mph - N/A   Unknown
10:52 AM 93.0 °F - 45.0 °F 19% 29.88 in - WSW 11.5 mph - N/A   Unknown
11:52 AM 96.1 °F - 44.1 °F 17% 29.88 in - West 8.1 mph - N/A   Unknown
12:52 PM 97.0 °F - 45.0 °F 17% 29.87 in - NW 10.4 mph 19.6 mph N/A   Unknown
1:52 PM 98.1 °F - 46.9 °F 18% 29.86 in - West 10.4 mph - N/A   Unknown
2:52 PM 99.0 °F - 48.0 °F 18% 29.84 in - WNW 15.0 mph 20.7 mph N/A   Unknown
3:52 PM 95.0 °F 94.8 °F 60.1 °F 31% 29.84 in - SW 15.0 mph 24.2 mph N/A   Unknown
4:52 PM 93.9 °F 93.2 °F 59.0 °F 31% 29.83 in - WNW 11.5 mph 20.7 mph N/A   Unknown
5:52 PM 91.0 °F 90.2 °F 59.0 °F 34% 29.84 in - WNW 9.2 mph - N/A   Unknown
6:52 PM 82.9 °F 82.8 °F 59.0 °F 44% 29.86 in - SW 12.7 mph - N/A   Unknown
7:52 PM 75.0 °F - 57.0 °F 53% 29.87 in - SW 6.9 mph - N/A   Unknown
8:52 PM 73.9 °F - 57.0 °F 55% 29.88 in - Calm Calm - N/A   Unknown
9:52 PM 66.0 °F - 54.0 °F 65% 29.90 in - NNE 3.5 mph - N/A   Unknown
10:52 PM 66.0 °F - 55.0 °F 68% 29.89 in - NE 4.6 mph - N/A   Unknown
11:52 PM 64.0 °F - 54.0 °F 70% 29.88 in - NNE 3.5 mph - N/A   Unknown